Flood From: 21-02-2018 18:00 Until: 22-02-2018 16:00 warning for: Flood Level: Yellow info button

Although rather usual in this region, locally or potentially dangerous phenomena are expected. (such as local winds, summer thunderstorms, rising streams or high waves) Be aware and pay attention to the latest weather updates, especially if you carry out activities exposed to weather or close to a stream or shoreline. 


Meteo18 Weather Cam more information Meteo18 Weather Cam


Thunder radar more information blitzortung!


Rain radar more information rain snow radar


Visit our other weather sites:

Template documentation
and downloads

And another site



Weather Underground History page Text

Daily Summary for February 23, 2017 Units:  English    Metric   Both
« Previous Day
Next Day »
Daily Weekly Monthly Yearly Custom
  High: Low: Average:
Temperature: TemperatureC °F 6.7 °F 7.9 °F
Dew Point: DewpointC °F 4.4 °F 6.1 °F
Humidity: Humidity % 80 % 88 %
Wind Speed: WindSpeedKMH mph 1.6 mph 13 mph
Wind Gust: WindSpeedGustKMH mph - -
Wind:- - WSW
Pressure: PressurehPa in 1009.4 in -
Precipitation: 4.3 in    
Historical Graphs
 
 
Tabular Data for February 23, 2017
Time Temperature Dew Point Pressure Wind Wind Speed Wind Gust Humidity Rainfall Rate (Hourly)
TemperatureC °F DewpointC °F PressurehPa in Calm     Humidity % HourlyPrecipMM in
00:02 8.4 °F 6.5 °F 1017.8 in WSW 4.8 mph 20.9 mph 88 % 0.0 in
00:12 8.3 °F 6.3 °F 1017.8 in WSW 19.3 mph 20.9 mph 87 % 0.0 in
00:17 8.3 °F 6.3 °F 1017.8 in SSW 1.6 mph 16.1 mph 87 % 0.0 in
00:22 8.3 °F 6.4 °F 1017.8 in SW 11.3 mph 19.3 mph 88 % 0.0 in
00:27 8.3 °F 6.4 °F 1017.8 in SSW 4.8 mph 19.3 mph 88 % 0.0 in
00:32 8.2 °F 6.3 °F 1017.8 in SSW 3.2 mph 16.1 mph 88 % 0.0 in
00:37 8.2 °F 6.3 °F 1017.8 in West 8.0 mph 16.1 mph 88 % 0.0 in
00:42 8.2 °F 6.2 °F 1017.8 in SSW 3.2 mph 19.3 mph 87 % 0.0 in
00:47 8.2 °F 6.2 °F 1017.5 in WSW 12.9 mph 19.3 mph 87 % 0.0 in
00:52 8.3 °F 6.3 °F 1017.5 in South 6.4 mph 19.3 mph 87 % 0.0 in
00:57 8.2 °F 6.2 °F 1017.8 in SSW 4.8 mph 20.9 mph 87 % 0.0 in
01:02 8.2 °F 6.3 °F 1017.8 in SSW 1.6 mph 20.9 mph 88 % 0.0 in
01:07 8.1 °F 6.2 °F 1017.5 in SW 6.4 mph 9.7 mph 88 % 0.0 in
01:12 8.1 °F 6.2 °F 1017.5 in SW 9.7 mph 9.7 mph 88 % 0.0 in
01:17 8.1 °F 6.2 °F 1017.5 in South 3.2 mph 17.7 mph 88 % 0.0 in
01:22 8.1 °F 6.2 °F 1017.5 in SW 6.4 mph 17.7 mph 88 % 0.0 in
01:32 8.1 °F 6.1 °F 1017.5 in WSW 4.8 mph 16.1 mph 87 % 0.0 in
01:42 8.1 °F 6.1 °F 1017.5 in SSE 6.4 mph 16.1 mph 87 % 0.0 in
01:47 8.1 °F 6.2 °F 1017.2 in SW 9.7 mph 14.5 mph 88 % 0.0 in
01:52 8.1 °F 6.2 °F 1017.2 in South 3.2 mph 14.5 mph 88 % 0.0 in
01:57 8.0 °F 6.1 °F 1017.2 in SW 8.0 mph 14.5 mph 88 % 0.0 in
02:02 7.9 °F 6.0 °F 1017.2 in SW 8.0 mph 14.5 mph 88 % 0.0 in
02:07 7.9 °F 6.0 °F 1017.2 in SW 12.9 mph 14.5 mph 88 % 0.0 in
02:12 7.9 °F 5.9 °F 1017.2 in SW 4.8 mph 14.5 mph 87 % 0.0 in
02:17 7.9 °F 6.0 °F 1016.8 in SE 11.3 mph 20.9 mph 88 % 0.0 in
02:22 7.8 °F 5.9 °F 1017.2 in WSW 6.4 mph 20.9 mph 88 % 0.0 in
02:27 7.8 °F 5.9 °F 1017.2 in West 12.9 mph 20.9 mph 88 % 0.0 in
02:32 7.8 °F 5.8 °F 1017.2 in WSW 11.3 mph 20.9 mph 87 % 0.0 in
02:37 7.7 °F 5.8 °F 1017.2 in SW 4.8 mph 17.7 mph 88 % 0.0 in
02:42 7.7 °F 5.8 °F 1016.8 in WSW 6.4 mph 17.7 mph 88 % 0.0 in
02:47 7.7 °F 5.8 °F 1016.8 in SW 6.4 mph 14.5 mph 88 % 0.0 in
02:52 7.6 °F 5.9 °F 1016.5 in SSW 6.4 mph 14.5 mph 89 % 0.0 in
02:57 7.6 °F 5.9 °F 1016.5 in SW 4.8 mph 14.5 mph 89 % 0.0 in
03:02 7.5 °F 5.8 °F 1016.5 in West 9.7 mph 14.5 mph 89 % 0.0 in
03:07 7.5 °F 5.8 °F 1016.5 in SW 6.4 mph 11.3 mph 89 % 0.0 in
03:12 7.4 °F 5.7 °F 1016.1 in SSW 6.4 mph 11.3 mph 89 % 0.0 in
03:17 7.3 °F 5.8 °F 1016.1 in SSW 6.4 mph 12.9 mph 90 % 0.0 in
03:22 7.3 °F 5.8 °F 1016.1 in SW 9.7 mph 12.9 mph 90 % 0.0 in
03:27 7.2 °F 5.7 °F 1016.1 in SSW 11.3 mph 14.5 mph 90 % 0.0 in
03:32 7.2 °F 5.7 °F 1016.1 in SSW 6.4 mph 14.5 mph 90 % 0.0 in
03:42 7.1 °F 5.6 °F 1015.8 in SSW 8.0 mph 16.1 mph 90 % 0.0 in
03:52 7.1 °F 5.6 °F 1015.5 in SSW 6.4 mph 17.7 mph 90 % 0.0 in
03:57 7.1 °F 5.6 °F 1015.5 in SSW 11.3 mph 17.7 mph 90 % 0.0 in
04:02 7.0 °F 5.6 °F 1015.5 in SW 11.3 mph 17.7 mph 91 % 0.0 in
04:07 7.0 °F 5.6 °F 1015.5 in SW 11.3 mph 17.7 mph 91 % 0.0 in
04:12 7.0 °F 5.6 °F 1015.1 in South 6.4 mph 17.7 mph 91 % 0.0 in
04:17 7.0 °F 5.5 °F 1015.1 in SSW 8.0 mph 17.7 mph 90 % 0.0 in
04:22 7.0 °F 5.5 °F 1015.1 in SSW 9.7 mph 17.7 mph 90 % 0.0 in
04:32 7.1 °F 5.4 °F 1015.1 in SSW 6.4 mph 17.7 mph 89 % 0.0 in
04:37 7.1 °F 5.4 °F 1014.8 in WSW 11.3 mph 20.9 mph 89 % 0.0 in
04:42 7.1 °F 5.4 °F 1014.8 in SW 14.5 mph 20.9 mph 89 % 0.0 in
04:47 7.0 °F 5.3 °F 1014.8 in WSW 12.9 mph 22.5 mph 89 % 0.0 in
04:52 6.9 °F 5.2 °F 1014.4 in SW 12.9 mph 22.5 mph 89 % 0.0 in
05:02 6.9 °F 5.4 °F 1014.4 in SSW 16.1 mph 22.5 mph 90 % 0.0 in
05:07 6.9 °F 5.4 °F 1014.4 in SW 16.1 mph 22.5 mph 90 % 0.0 in
05:12 6.8 °F 5.3 °F 1014.4 in SSW 9.7 mph 22.5 mph 90 % 0.0 in
05:17 6.8 °F 5.3 °F 1014.4 in SW 16.1 mph 25.7 mph 90 % 0.0 in
05:22 6.8 °F 5.3 °F 1014.4 in SW 8.0 mph 25.7 mph 90 % 0.0 in
05:32 6.8 °F 5.3 °F 1014.1 in SW 12.9 mph 19.3 mph 90 % 0.0 in
05:42 6.8 °F 5.3 °F 1014.1 in SW 16.1 mph 29.0 mph 90 % 0.0 in
05:52 6.8 °F 5.3 °F 1014.1 in SSW 8.0 mph 29.0 mph 90 % 0.0 in
06:02 6.8 °F 5.3 °F 1013.8 in SW 12.9 mph 24.1 mph 90 % 0.0 in
06:12 6.8 °F 5.3 °F 1013.8 in SW 16.1 mph 19.3 mph 90 % 0.0 in
06:17 6.8 °F 5.3 °F 1013.8 in WSW 8.0 mph 19.3 mph 90 % 0.0 in
06:22 6.8 °F 5.3 °F 1013.8 in SW 9.7 mph 19.3 mph 90 % 0.0 in
06:27 6.7 °F 5.2 °F 1013.8 in SW 11.3 mph 20.9 mph 90 % 0.0 in
06:32 6.7 °F 5.2 °F 1013.4 in SSW 9.7 mph 20.9 mph 90 % 0.0 in
06:42 6.7 °F 5.3 °F 1013.4 in WSW 9.7 mph 17.7 mph 91 % 0.0 in
06:47 6.7 °F 5.2 °F 1013.1 in SW 19.3 mph 20.9 mph 90 % 0.0 in
06:52 6.7 °F 5.2 °F 1013.1 in SW 12.9 mph 20.9 mph 90 % 0.0 in
06:57 6.7 °F 5.2 °F 1013.1 in SW 12.9 mph 20.9 mph 90 % 0.0 in
07:02 6.7 °F 5.3 °F 1013.1 in SSW 6.4 mph 20.9 mph 91 % 0.0 in
07:12 6.7 °F 5.3 °F 1013.1 in SW 17.7 mph 19.3 mph 91 % 0.0 in
07:17 6.7 °F 5.2 °F 1013.1 in SW 12.9 mph 19.3 mph 90 % 0.0 in
07:22 6.7 °F 5.2 °F 1013.1 in SW 11.3 mph 24.1 mph 90 % 0.0 in
07:27 6.7 °F 5.2 °F 1013.1 in WSW 19.3 mph 24.1 mph 90 % 0.0 in
07:32 6.7 °F 5.0 °F 1012.8 in SSW 12.9 mph 24.1 mph 89 % 0.0 in
07:37 6.7 °F 5.0 °F 1012.8 in WSW 12.9 mph 24.1 mph 89 % 0.0 in
07:42 6.7 °F 5.0 °F 1013.1 in WSW 9.7 mph 22.5 mph 89 % 0.0 in
07:47 6.7 °F 5.2 °F 1012.8 in SSW 14.5 mph 22.5 mph 90 % 0.0 in
07:52 6.7 °F 5.2 °F 1012.8 in WSW 20.9 mph 24.1 mph 90 % 0.0 in
07:57 6.7 °F 5.2 °F 1012.8 in SSW 9.7 mph 24.1 mph 90 % 0.0 in
08:02 6.7 °F 5.2 °F 1012.8 in SSW 14.5 mph 24.1 mph 90 % 0.0 in
08:07 6.7 °F 5.0 °F 1012.8 in WSW 8.0 mph 24.1 mph 89 % 0.0 in
08:12 6.7 °F 5.0 °F 1012.8 in SW 9.7 mph 24.1 mph 89 % 0.0 in
08:17 6.7 °F 5.0 °F 1012.8 in SW 14.5 mph 24.1 mph 89 % 0.0 in
08:22 6.7 °F 5.0 °F 1012.8 in SW 14.5 mph 24.1 mph 89 % 0.0 in
08:27 6.7 °F 4.9 °F 1012.8 in SW 14.5 mph 24.1 mph 88 % 0.0 in
08:32 6.8 °F 5.0 °F 1012.8 in SSW 16.1 mph 24.1 mph 88 % 0.0 in
08:37 6.8 °F 5.0 °F 1012.8 in SW 8.0 mph 24.1 mph 88 % 0.0 in
08:42 6.8 °F 5.0 °F 1012.8 in WSW 11.3 mph 25.7 mph 88 % 0.0 in
08:47 6.9 °F 5.1 °F 1012.8 in WSW 6.4 mph 25.7 mph 88 % 0.0 in
08:52 6.9 °F 5.1 °F 1012.8 in SSW 16.1 mph 25.7 mph 88 % 0.0 in
08:57 6.9 °F 5.1 °F 1012.8 in SW 20.9 mph 25.7 mph 88 % 0.0 in
09:02 6.9 °F 5.1 °F 1012.4 in WSW 8.0 mph 22.5 mph 88 % 0.0 in
09:07 6.9 °F 5.1 °F 1012.4 in SW 8.0 mph 22.5 mph 88 % 0.0 in
09:12 6.9 °F 5.1 °F 1012.4 in SW 12.9 mph 24.1 mph 88 % 0.0 in
09:17 7.0 °F 5.3 °F 1012.4 in WSW 8.0 mph 24.1 mph 89 % 0.0 in
09:22 7.0 °F 5.1 °F 1012.4 in SW 25.7 mph 25.7 mph 88 % 0.0 in
09:32 7.0 °F 5.1 °F 1012.4 in WSW 11.3 mph 27.4 mph 88 % 0.0 in
09:42 7.0 °F 5.1 °F 1012.4 in West 3.2 mph 27.4 mph 88 % 0.0 in
09:47 6.9 °F 4.9 °F 1012.4 in SW 20.9 mph 27.4 mph 87 % 0.0 in
09:52 6.9 °F 4.9 °F 1012.1 in WSW 19.3 mph 27.4 mph 87 % 0.0 in
09:57 6.9 °F 4.9 °F 1012.1 in WSW 11.3 mph 27.4 mph 87 % 0.0 in
10:02 7.1 °F 5.1 °F 1012.1 in SW 17.7 mph 29.0 mph 87 % 0.0 in
10:07 7.1 °F 5.1 °F 1012.1 in SW 25.7 mph 29.0 mph 87 % 0.0 in
10:12 7.2 °F 5.0 °F 1012.1 in SSW 14.5 mph 29.0 mph 86 % 0.0 in
10:17 7.2 °F 5.0 °F 1012.1 in SW 17.7 mph 29.0 mph 86 % 0.0 in
10:22 7.2 °F 5.0 °F 1012.1 in SW 19.3 mph 30.6 mph 86 % 0.0 in
10:27 7.2 °F 4.8 °F 1012.1 in WSW 12.9 mph 30.6 mph 85 % 0.0 in
10:32 7.3 °F 5.1 °F 1012.1 in WSW 19.3 mph 38.6 mph 86 % 0.0 in
10:37 7.4 °F 5.0 °F 1012.1 in SW 3.2 mph 38.6 mph 85 % 0.0 in
10:42 7.5 °F 5.3 °F 1012.1 in WSW 16.1 mph 38.6 mph 86 % 0.0 in
10:47 7.6 °F 5.2 °F 1011.7 in SSW 11.3 mph 38.6 mph 85 % 0.0 in
10:52 7.7 °F 5.2 °F 1011.7 in SW 22.5 mph 32.2 mph 84 % 0.0 in
10:57 7.8 °F 5.4 °F 1011.7 in WSW 12.9 mph 32.2 mph 85 % 0.0 in
11:02 7.8 °F 5.3 °F 1011.7 in West 25.7 mph 33.8 mph 84 % 0.0 in
11:07 7.7 °F 5.3 °F 1011.7 in SW 20.9 mph 33.8 mph 85 % 0.0 in
11:12 7.8 °F 5.4 °F 1011.7 in SW 20.9 mph 35.4 mph 85 % 0.0 in
11:17 7.8 °F 5.4 °F 1011.7 in West 8.0 mph 35.4 mph 85 % 0.0 in
11:22 7.7 °F 5.2 °F 1011.7 in West 20.9 mph 35.4 mph 84 % 0.0 in
11:27 7.7 °F 5.0 °F 1011.7 in West 12.9 mph 35.4 mph 83 % 0.0 in
11:37 7.8 °F 5.3 °F 1012.1 in West 25.7 mph 37.0 mph 84 % 0.0 in
11:42 7.8 °F 5.3 °F 1012.1 in West 33.8 mph 37.0 mph 84 % 0.0 in
11:47 7.7 °F 5.2 °F 1012.1 in West 11.3 mph 37.0 mph 84 % 0.0 in
11:52 7.6 °F 5.1 °F 1012.1 in WSW 12.9 mph 37.0 mph 84 % 0.0 in
11:57 7.6 °F 5.2 °F 1012.1 in West 16.1 mph 33.8 mph 85 % 0.0 in
12:02 7.7 °F 5.3 °F 1012.1 in WSW 16.1 mph 33.8 mph 85 % 0.0 in
12:07 7.7 °F 5.3 °F 1012.1 in SW 17.7 mph 32.2 mph 85 % 0.0 in
12:12 7.7 °F 5.3 °F 1012.1 in SW 12.9 mph 32.2 mph 85 % 0.0 in
12:17 7.8 °F 5.4 °F 1011.7 in SW 8.0 mph 32.2 mph 85 % 0.0 in
12:22 7.8 °F 5.4 °F 1011.7 in South 8.0 mph 38.6 mph 85 % 0.0 in
12:27 7.9 °F 5.5 °F 1011.7 in SW 29.0 mph 38.6 mph 85 % 0.0 in
12:32 7.9 °F 5.4 °F 1011.4 in SW 37.0 mph 38.6 mph 84 % 0.0 in
12:37 8.0 °F 5.5 °F 1011.7 in WSW 16.1 mph 38.6 mph 84 % 0.0 in
12:42 8.1 °F 5.7 °F 1011.7 in WSW 12.9 mph 41.8 mph 85 % 0.0 in
12:52 8.1 °F 5.7 °F 1011.7 in WSW 17.7 mph 37.0 mph 85 % 0.0 in
12:57 8.1 °F 5.7 °F 1011.7 in West 20.9 mph 38.6 mph 85 % 0.0 in
13:02 8.1 °F 5.7 °F 1011.4 in SW 16.1 mph 38.6 mph 85 % 0.0 in
13:07 8.2 °F 5.8 °F 1011.4 in West 25.7 mph 37.0 mph 85 % 0.0 in
13:12 8.2 °F 5.8 °F 1011.4 in WSW 22.5 mph 37.0 mph 85 % 0.0 in
13:17 8.2 °F 5.8 °F 1011.4 in WSW 25.7 mph 35.4 mph 85 % 0.0 in
13:22 8.2 °F 5.8 °F 1011.4 in SW 12.9 mph 35.4 mph 85 % 0.0 in
13:32 8.3 °F 6.1 °F 1011.1 in SSW 17.7 mph 35.4 mph 86 % 0.0 in
13:37 8.3 °F 6.1 °F 1011.1 in SSW 27.4 mph 33.8 mph 86 % 0.0 in
13:42 8.4 °F 6.2 °F 1010.7 in WSW 16.1 mph 33.8 mph 86 % 0.0 in
13:47 8.5 °F 6.3 °F 1010.7 in WSW 16.1 mph 35.4 mph 86 % 0.0 in
13:52 8.6 °F 6.2 °F 1010.7 in WSW 24.1 mph 35.4 mph 85 % 0.0 in
13:57 8.7 °F 6.3 °F 1010.7 in SW 19.3 mph 32.2 mph 85 % 0.0 in
14:02 8.7 °F 6.3 °F 1010.4 in SSW 6.4 mph 32.2 mph 85 % 0.0 in
14:07 8.7 °F 6.3 °F 1010.4 in WSW 24.1 mph 33.8 mph 85 % 0.0 in
14:12 8.7 °F 6.3 °F 1010.4 in WSW 14.5 mph 33.8 mph 85 % 0.0 in
14:17 8.7 °F 6.5 °F 1010.4 in West 14.5 mph 35.4 mph 86 % 0.0 in
14:22 8.7 °F 6.3 °F 1010.4 in West 16.1 mph 35.4 mph 85 % 0.0 in
14:32 8.8 °F 6.6 °F 1010.4 in West 14.5 mph 35.4 mph 86 % 0.0 in
14:42 8.8 °F 6.6 °F 1010.4 in West 19.3 mph 33.8 mph 86 % 0.0 in
14:47 8.8 °F 6.6 °F 1010.0 in WSW 20.9 mph 32.2 mph 86 % 0.0 in
14:52 8.9 °F 6.5 °F 1010.0 in SW 16.1 mph 32.2 mph 85 % 0.0 in
14:57 9.0 °F 6.6 °F 1010.0 in WSW 20.9 mph 32.2 mph 85 % 0.0 in
15:02 9.1 °F 6.7 °F 1009.7 in SSW 17.7 mph 32.2 mph 85 % 0.0 in
15:07 9.1 °F 6.7 °F 1009.7 in SW 27.4 mph 35.4 mph 85 % 0.0 in
15:12 9.1 °F 6.7 °F 1009.7 in West 12.9 mph 35.4 mph 85 % 0.0 in
15:17 9.1 °F 6.9 °F 1009.4 in WSW 24.1 mph 35.4 mph 86 % 0.0 in
15:22 9.1 °F 6.9 °F 1009.4 in SW 16.1 mph 35.4 mph 86 % 0.0 in
15:27 9.1 °F 6.7 °F 1009.4 in SW 16.1 mph 29.0 mph 85 % 0.0 in
15:32 9.2 °F 6.8 °F 1009.4 in WSW 19.3 mph 29.0 mph 85 % 0.0 in
15:37 9.2 °F 6.8 °F 1009.4 in SW 14.5 mph 35.4 mph 85 % 0.0 in
15:42 9.2 °F 6.8 °F 1009.4 in SSW 17.7 mph 35.4 mph 85 % 0.0 in
15:47 9.2 °F 7.0 °F 1009.4 in WSW 27.4 mph 37.0 mph 86 % 0.0 in
15:52 9.2 °F 7.0 °F 1009.4 in SW 20.9 mph 37.0 mph 86 % 0.0 in
15:57 9.2 °F 7.0 °F 1009.4 in SW 24.1 mph 48.3 mph 86 % 0.0 in
16:02 9.2 °F 7.0 °F 1009.4 in WSW 17.7 mph 48.3 mph 86 % 0.0 in
16:07 9.2 °F 7.0 °F 1009.4 in SW 20.9 mph 40.2 mph 86 % 0.0 in
16:12 9.1 °F 7.1 °F 1009.4 in West 16.1 mph 40.2 mph 87 % 0.0 in
16:17 9.1 °F 7.1 °F 1009.4 in West 14.5 mph 40.2 mph 87 % 0.0 in
16:22 8.9 °F 7.0 °F 1009.4 in SW 25.7 mph 40.2 mph 88 % 0.0 in
16:32 8.7 °F 7.2 °F 1009.4 in SW 20.9 mph 37.0 mph 90 % 0.0 in
16:42 8.4 °F 7.2 °F 1009.4 in WSW 17.7 mph 41.8 mph 92 % 0.0 in
16:47 8.4 °F 7.3 °F 1009.4 in SW 24.1 mph 35.4 mph 93 % 0.0 in
16:52 8.3 °F 7.2 °F 1009.4 in SW 16.1 mph 35.4 mph 93 % 0.0 in
16:57 8.3 °F 7.2 °F 1009.4 in WSW 24.1 mph 33.8 mph 93 % 0.0 in
17:02 8.3 °F 7.2 °F 1009.4 in SW 17.7 mph 33.8 mph 93 % 0.0 in
17:07 8.3 °F 7.2 °F 1009.4 in WSW 30.6 mph 35.4 mph 93 % 0.0 in
17:12 8.3 °F 7.2 °F 1009.4 in SW 17.7 mph 35.4 mph 93 % 0.0 in
17:17 8.3 °F 7.4 °F 1009.4 in SW 8.0 mph 38.6 mph 94 % 0.0 in
17:22 8.3 °F 7.4 °F 1009.4 in SW 16.1 mph 38.6 mph 94 % 0.0 in
17:27 8.3 °F 7.4 °F 1009.4 in WSW 11.3 mph 27.4 mph 94 % 0.0 in
17:32 8.3 °F 7.4 °F 1009.4 in SSW 12.9 mph 27.4 mph 94 % 0.0 in
17:37 8.3 °F 7.4 °F 1009.4 in WSW 20.9 mph 33.8 mph 94 % 0.0 in
17:42 8.3 °F 7.4 °F 1009.4 in SSW 12.9 mph 33.8 mph 94 % 0.0 in
17:47 8.3 °F 7.4 °F 1009.4 in SW 12.9 mph 30.6 mph 94 % 0.0 in
17:52 8.2 °F 7.3 °F 1009.4 in SW 16.1 mph 30.6 mph 94 % 0.0 in
17:57 8.2 °F 7.3 °F 1009.4 in SW 17.7 mph 32.2 mph 94 % 0.0 in
18:02 8.2 °F 7.3 °F 1009.4 in SW 22.5 mph 32.2 mph 94 % 0.0 in
18:12 8.2 °F 7.4 °F 1009.7 in WSW 9.7 mph 32.2 mph 95 % 0.0 in
18:17 8.2 °F 7.4 °F 1009.7 in SW 12.9 mph 32.2 mph 95 % 0.0 in
18:22 8.2 °F 7.4 °F 1009.7 in SW 11.3 mph 32.2 mph 95 % 0.0 in
18:32 8.2 °F 7.4 °F 1009.7 in SW 9.7 mph 32.2 mph 95 % 0.0 in
18:37 8.2 °F 7.4 °F 1009.7 in WSW 20.9 mph 32.2 mph 95 % 0.0 in
18:42 8.2 °F 7.4 °F 1010.0 in WSW 11.3 mph 30.6 mph 95 % 0.3 in
18:52 8.2 °F 7.4 °F 1010.0 in WNW 12.9 mph 25.7 mph 95 % 0.3 in
18:57 8.3 °F 7.5 °F 1010.0 in SW 9.7 mph 29.0 mph 95 % 0.3 in
19:02 8.3 °F 7.5 °F 1010.0 in SW 17.7 mph 29.0 mph 95 % 0.3 in
19:07 8.3 °F 7.5 °F 1010.0 in West 8.0 mph 30.6 mph 95 % 0.5 in
19:12 8.3 °F 7.5 °F 1010.0 in SW 6.4 mph 30.6 mph 95 % 0.5 in
19:17 8.4 °F 7.6 °F 1010.0 in WSW 16.1 mph 32.2 mph 95 % 0.5 in
19:22 8.4 °F 7.6 °F 1010.4 in SW 9.7 mph 32.2 mph 95 % 0.5 in
19:32 8.4 °F 7.6 °F 1010.4 in WSW 11.3 mph 25.7 mph 95 % 0.5 in
19:42 8.5 °F 7.7 °F 1010.4 in WSW 8.0 mph 27.4 mph 95 % 0.3 in
19:52 8.6 °F 7.8 °F 1010.4 in SW 11.3 mph 22.5 mph 95 % 0.3 in
19:57 8.7 °F 7.9 °F 1010.4 in WSW 8.0 mph 20.9 mph 95 % 0.3 in
20:02 8.7 °F 7.9 °F 1010.7 in SSW 6.4 mph 20.9 mph 95 % 0.3 in
20:07 8.7 °F 7.9 °F 1010.7 in West 12.9 mph 24.1 mph 95 % 0.0 in
20:12 8.8 °F 8.0 °F 1010.4 in WSW 9.7 mph 24.1 mph 95 % 0.0 in
20:17 8.8 °F 8.0 °F 1010.7 in SW 17.7 mph 25.7 mph 95 % 0.0 in
20:22 8.8 °F 8.0 °F 1010.7 in WSW 19.3 mph 25.7 mph 95 % 0.0 in
20:27 8.8 °F 8.0 °F 1010.7 in West 6.4 mph 25.7 mph 95 % 0.3 in
20:32 8.9 °F 8.1 °F 1011.1 in WNW 9.7 mph 25.7 mph 95 % 0.3 in
20:37 8.9 °F 8.1 °F 1011.1 in WSW 22.5 mph 25.7 mph 95 % 1.5 in
20:42 8.9 °F 8.1 °F 1011.1 in WNW 8.0 mph 25.7 mph 95 % 1.5 in
20:52 9.0 °F 8.1 °F 1011.1 in West 8.0 mph 24.1 mph 94 % 2.3 in
20:57 8.9 °F 8.0 °F 1011.1 in WNW 9.7 mph 22.5 mph 94 % 2.5 in
21:02 8.9 °F 8.0 °F 1011.4 in West 6.4 mph 22.5 mph 94 % 2.5 in
21:07 8.8 °F 7.6 °F 1011.4 in WNW 9.7 mph 20.9 mph 92 % 3.0 in
21:12 8.7 °F 7.6 °F 1011.4 in NNE 3.2 mph 20.9 mph 93 % 3.0 in
21:17 8.6 °F 7.1 °F 1011.4 in WNW 12.9 mph 20.9 mph 90 % 3.3 in
21:22 8.6 °F 7.2 °F 1011.4 in WNW 11.3 mph 20.9 mph 91 % 3.3 in
21:32 8.7 °F 7.2 °F 1011.7 in WNW 20.9 mph 20.9 mph 90 % 3.3 in
21:37 8.7 °F 7.2 °F 1011.4 in West 9.7 mph 25.7 mph 90 % 1.5 in
21:42 8.7 °F 7.2 °F 1011.7 in WNW 8.0 mph 25.7 mph 90 % 1.5 in
21:47 8.6 °F 7.1 °F 1011.7 in WNW 6.4 mph 24.1 mph 90 % 1.3 in
21:57 8.8 °F 6.8 °F 1011.7 in WNW 8.0 mph 16.1 mph 87 % 1.3 in
22:07 8.7 °F 6.7 °F 1011.7 in WNW 6.4 mph 16.1 mph 87 % 0.5 in
22:12 8.5 °F 6.6 °F 1011.7 in West 1.6 mph 16.1 mph 88 % 0.5 in
22:22 8.4 °F 6.9 °F 1011.7 in WNW 3.2 mph 12.9 mph 90 % 0.5 in
22:27 8.3 °F 6.8 °F 1012.1 in WSW 3.2 mph 8.0 mph 90 % 0.3 in
22:32 8.3 °F 6.8 °F 1012.1 in West 1.6 mph 8.0 mph 90 % 0.3 in
22:37 8.4 °F 6.7 °F 1012.1 in WNW 9.7 mph 16.1 mph 89 % 0.0 in
22:42 8.4 °F 6.5 °F 1012.1 in West 6.4 mph 16.1 mph 88 % 0.0 in
22:47 8.4 °F 6.5 °F 1012.1 in WNW 6.4 mph 16.1 mph 88 % 0.0 in
22:52 8.3 °F 6.3 °F 1012.1 in WNW 3.2 mph 16.1 mph 87 % 0.0 in
22:57 8.3 °F 6.3 °F 1012.4 in WSW 9.7 mph 12.9 mph 87 % 0.0 in
23:02 8.3 °F 6.1 °F 1012.1 in West 9.7 mph 12.9 mph 86 % 0.0 in
23:07 8.3 °F 5.8 °F 1012.4 in WNW 6.4 mph 17.7 mph 84 % 0.0 in
23:12 8.2 °F 5.7 °F 1012.4 in West 8.0 mph 17.7 mph 84 % 0.0 in
23:17 8.1 °F 5.6 °F 1012.4 in WNW 8.0 mph 17.7 mph 84 % 0.0 in
23:22 8.1 °F 5.7 °F 1012.4 in West 1.6 mph 17.7 mph 85 % 0.0 in
23:27 8.0 °F 5.6 °F 1012.4 in West 9.7 mph 12.9 mph 85 % 0.0 in
23:32 7.9 °F 4.7 °F 1012.4 in West 17.7 mph 17.7 mph 80 % 0.0 in
23:42 7.8 °F 4.6 °F 1012.8 in NW 11.3 mph 29.0 mph 80 % 0.0 in
23:47 7.6 °F 4.4 °F 1012.8 in West 9.7 mph 29.0 mph 80 % 0.0 in
23:52 7.5 °F 4.5 °F 1012.8 in WNW 6.4 mph 29.0 mph 81 % 0.0 in
23:57 7.4 °F 4.4 °F 1012.8 in WSW 6.4 mph 17.7 mph 81 % 0.0 in
Meteo18
Compliments of Weather Underground - 4 mb

Script developed by  Jim McMurry - jmcmurry@mwt.net Adapted for the template by  Wim van der Kuil - Leuven-Template.eu

You find our weather info also at:

European Weather Network

Weather Underground

Equipment we use:

Weather-station
Davis Vue

Weather-program
Meteobridge

Weather-server
Raspberry PI 2 B+

Provider
1 and 1

Davis Vue

Meteobridge

Raspberry PI 2 B+

1 and 1